COSMOS 864

导读 | 豆包AI

**COSMOS 864卫星摘要** COSMOS 864(宇宙864)是苏联/俄罗斯"宇宙"系列卫星之一,于1976年10月29日发射。"宇宙"系列是世界上规模最大的卫星家族,涵盖多领域任务,多数承担军事用途,编号包含大量试验任务及失利探测器。该系列通过统一编号模糊任务属性,增强保密性,为苏联航天探索积累了重要技术经验,是冷战时期航天发展的典型见证。

Basic Information
目录编号:
9509
目录名称:
COSMOS 864
国际标识:
1976-108A
轨道中心:
EARTH
卫星名称:
COSMOS 864
卫星全名:
--
卫星状态:
在轨 (已飞行18033 天)
发射日期:
1976-10-29 UTC
国别 :
俄罗斯(独联体) (CIS)
星等 :
--
Orbit Information
数据来源 国际轨道数据 AOE轨道数据
星历时间 2026-03-13T17:30:59+0800
17小时前
查看轨道信息
2026-03-13T15:00:00+0800
20小时前
查看轨道信息
半长轴 7357.768km 7357.772km
偏心率 0.0030823 0.0030635
轨道倾角 82.940° 82.941°
近地点辐角 53.825° 54.016°
升交点赤经 220.601° 220.678°
平近点角 325.058° 165.939°
近地点 956.952km 957.094km
远地点 1002.31km 1002.176km
周期 104.684分钟 104.684分钟
每日圈数 13.75573 13.755721
Detailed Information
使用方式:
暂无
2D Orbit Map
3D Orbit Map
Orbit Altitude Analysis Chart
Orbit Inclination Analysis Chart
Orbit Comprehensive Analysis Chart
View Comprehensive Chart